Home   Weather   Stanley   Past weeks
Flag for Falkland Islands

Past Weather in Stanley, Falkland Islands — Yesterday and Last 2 Weeks

Now
39 °F

Passing clouds.


Feels Like: 34 °F
Forecast: N/A
Wind: 8 mph from West

Location: Mount Pleasant Airport

Current Time: May 31, 2020 at 8:19:27 pm

Latest Report: May 31, 2020 at 7:20 pm


Visibility: N/A

Pressure: 30.01 "Hg

Humidity: 100%

Dew Point: 39 °F

Location of StanleyLocation

Past Weather in Stanley — Graph

°F

Stanley Temperature Yesterday

Maximum temperature yesterday: 45 °F (at 12:20 pm)
Minimum temperature yesterday: 39 °F (at 5:50 am)
Average temperature yesterday: 42 °F

High & Low Weather Summary for the Past Weeks

 TemperatureHumidityPressure
High52 °F (May 23, 3:50 pm)100% (May 17, 12:50 am)30.15 "Hg (May 17, 12:50 am)
Low30 °F (May 25, 7:50 pm)61% (May 25, 12:20 pm)28.88 "Hg (May 19, 12:50 am)
Average41 °F89%29.74 "Hg
* Reported May 16 6:50 pm — May 31 6:50 pm, Stanley. Weather by CustomWeather, © 2020

Note: Actual official high and low records may vary slightly from our data, if they occured in-between our weather recording intervals... More about our weather records

Stanley Weather History for the Previous 24 Hours

Scroll right to see more
 ConditionsComfort  
Time TempWeatherWind HumidityBarometerVisibility
6:50 pm
Sun, May 31
39 °FPassing clouds.7 mph100%29.98 "HgN/A
6:20 pm39 °FPassing clouds.9 mph100%30.01 "HgN/A
5:50 pm39 °FSunny.10 mph100%29.98 "Hg10 mi
4:50 pm41 °FScattered clouds.6 mph93%29.98 "HgN/A
3:50 pm43 °FScattered clouds.10 mph93%29.95 "HgN/A
2:50 pm45 °FScattered clouds.10 mph100%29.95 "HgN/A
2:16 pm45 °FPassing clouds.12 mph100%29.95 "HgN/A
1:50 pm45 °FPartly sunny.14 mph100%29.95 "HgN/A
12:50 pm45 °FDrizzle. Low clouds.16 mph100%29.95 "Hg2 mi
12:20 pm45 °FDrizzle. More clouds than sun.16 mph100%29.95 "HgN/A
11:50 am43 °FDrizzle. More clouds than sun.16 mph100%29.95 "HgN/A
10:50 am43 °FLight rain. Broken clouds.14 mph100%29.95 "HgN/A
9:50 am41 °FBroken clouds.13 mph100%29.95 "HgN/A
9:28 am39 °FPartly cloudy.15 mph100%29.95 "HgN/A
9:12 am39 °FPartly cloudy.15 mph100%29.95 "HgN/A
8:50 am37 °FPartly cloudy.14 mph100%29.95 "Hg1 mi
8:29 am37 °FPassing clouds.13 mph100%29.95 "Hg1 mi
8:13 am39 °FPassing clouds.14 mph93%29.95 "Hg1 mi
7:50 am39 °FPassing clouds.15 mph100%29.95 "Hg2 mi
6:50 am39 °FPassing clouds.13 mph93%29.95 "HgN/A
6:43 am37 °FPassing clouds.13 mph100%29.95 "HgN/A
5:50 am37 °FFog.13 mph100%29.95 "Hg1 mi
5:22 am37 °FFog.13 mph93%29.95 "Hg5 mi
4:50 am36 °FFog.9 mph100%29.95 "Hg1 mi
4:22 am37 °FFog.9 mph100%29.95 "Hg1 mi
3:50 am39 °FFog.12 mph100%29.95 "Hg1 mi
2:50 am39 °FPartly cloudy.10 mph100%29.95 "Hg3 mi
1:37 am39 °FDrizzle. Mostly cloudy.7 mph100%29.95 "Hg1 mi
12:50 am41 °FPartly cloudy.10 mph93%29.95 "Hg2 mi
11:50 pm
Sat, May 30
41 °FPassing clouds.8 mph93%29.95 "HgN/A
10:50 pm41 °FDrizzle. Mostly cloudy.8 mph93%29.98 "HgN/A
9:50 pm41 °FPassing clouds.9 mph93%29.98 "HgN/A
8:50 pm41 °FPartly cloudy.10 mph100%29.98 "HgN/A
Weather by CustomWeather, © 2020

See weather overview

Advertising